Regional Weather Roundup
Issued by NWS

Home | Current Version | Previous Version | Graphics & Text | Print | Product List | Glossary On
Versions: 1 2 3 4 5 6 7 8 9 10 11 12 13 14 15 16 17 18 19 20 21 22 23 24 25 26 27 28 29 30 31 32 33 34 35 36 37 38 39 40 41 42 43 44 45 46 47 48 49 50
443
ASUS45 KCYS 222210
RWRWY

WYOMING REGIONAL WEATHER ROUNDUP
NATIONAL WEATHER SERVICE CHEYENNE WY
400 PM MDT FRI SEP 22 2017

NOTE:  "FAIR" INDICATES FEW OR NO CLOUDS BELOW 12,000 FEET
WITH NO SIGNIFICANT WEATHER AND/OR OBSTRUCTIONS TO VISIBILITY.

WYZ001-222300-
YELLOWSTONE NATIONAL PARK

CITY           SKY/WX    TMP DP  RH WIND       PRES   REMARKS
LK YELLOWSTONE NOT AVBL
W YELLOWSTONE  NOT AVBL

$$
WYZ002>013-054>058-071-098>099-222300-
NORTHERN WYOMING

CITY           SKY/WX    TMP DP  RH WIND       PRES   REMARKS
JACKSON        PTSUNNY   48  30  49 SW10      29.90R
CODY           CLOUDY    40  36  86 N9        29.97S WCI  34
GREYBULL       CLOUDY    47  41  80 NW6       29.94F
WORLAND        CLOUDY    47  40  76 N7        29.92F
SHERIDAN       CLOUDY    46  40  79 CALM      29.97S
BUFFALO        CLOUDY    43  37  79 N7        29.97R
GILLETTE       CLOUDY    50  38  63 N12       29.94S
HULETT         CLOUDY    46  37  71 N7        29.95F
NEWCASTLE      FAIR      57  36  44 NW16G22   29.90R

$$
WYZ014>020-022>026-101>103-222300-
CENTRAL WYOMING

CITY           SKY/WX    TMP DP  RH WIND       PRES   REMARKS
BIG PINEY      PTSUNNY   50  26  39 VRB6      29.88S
PINEDALE       CLOUDY    41  34  75 E18       29.90F
DUBOIS         DRIZZLE   37  34  87 SE10      29.91F WCI  30
LANDER           N/A    N/A N/A N/A MISG      29.89F
RIVERTON       CLOUDY    46  39  76 NW10      29.89F
CASPER         LGT RAIN  56  36  47 N3        29.89F
DOUGLAS        CLOUDY    58  35  42 N10       29.91R

$$
WYZ021-027>030-104>119-222300-
SOUTHERN WYOMING

CITY           SKY/WX    TMP DP  RH WIND       PRES   REMARKS
EVANSTON       CLOUDY    46  30  53 W15       29.87F
KEMMERER         N/A     45  30  57 W13G18    29.88S
FORT BRIDGER   DRIZZLE   44  42  93 SE7       29.91S
ROCK SPRINGS   LGT RAIN  46  41  82 NW16      29.83F
RAWLINS        TSTM      45  41  86 SW25G39   29.92R FOG
SARATOGA       MOCLDY    54  39  58 NW6       29.91R
LARAMIE        FAIR      57  44  62 SE10      29.90F
CHEYENNE       FAIR      59  34  39 NE17G24   29.92R
TORRINGTON     FAIR      68  35  29 N7        29.84R
PINE BLUFFS    FAIR      64  36  34 N18       29.87R

$$




USA.gov is the U.S. government's official web portal to all federal, state and local government web resources and services.